Weather in Osinovaya Gora

Russia / Tula Oblast     54°09′38″N   37°40′32″E
temp.,
°C
wind,
m/s
gust,
m/s
humid.,
%
clouds,
%
prec.,
mm/h
press.,
hPa
HPBL,
m
8 may, sat
sat800:00+7sse387035 0.0 1013172
03:00+9sse51466100 0.0 1012565
06:00+8sse51486100 0.8 1010904
09:00+8sse81791100 5.1 10081078
12:00+9sse81792100 2.5 10071072
15:00+9sse71594100 7.9 1004998
18:00+10s51297100 8.4 1002778
21:00+9s41097100 9.2 1001504
9 may, sun
sun900:00+8w4896100 0.1 1002551
03:00+5nw61093100 0.9 1005693
06:00+3wnw71497100 5.7 1008839
09:00+4nw71294100 7.9 1012918
12:00+7nw7107399 0.2 10141348
15:00+7nw6107191 0.3 10171337
18:00+9nw510635 0.1 10191466
21:00+6wnw37735 0.1 1021150
10 may, mon
mon1000:00+4nw411750 0.0 1023232
03:00+3nnw410720 0.0 1026198
06:00+3n38730 0.0 1028202
09:00+9n48550 0.0 1029737
12:00+12nne57410 0.0 10291306
15:00+13nne574419 0.0 10281411
18:00+12nne58560 0.0 1028982
21:00+8nne48731 0.0 1029182
11 may, tue
tue1100:00+6ne411725 0.0 1029234
03:00+5ne411773 0.0 1029239
06:00+5ne513730 0.0 1030346
09:00+11ene712620 0.0 1029677
12:00+15ene79545 0.0 1028902
15:00+17ene685695 0.0 1026992
18:00+16e586715 0.0 1027952
21:00+12ne4108523 0.0 1026251
12 may, wed
wed1200:00+11ene513875 0.0 1026327
03:00+10ene4119549 0.0 1024248
06:00+10ene5129474 0.0 1024355
09:00+12e51094100 0.3 1024397
12:00+13e6129299 0.1 1024824
15:00+14e51191100 0.4 1023869
18:00+15e6128851 0.4 1022796
21:00+14e51294100 0.6 1021496